Location: Marcé
(47.5801°N, 0.3280°W)
Time: 07:08:38
(UTC+01:00)

Vanguard 1 Rocket - Pass Details

Date: 09 December 2021
Orbit: 651 x 4224 km, 34.3° (Epoch: 23 January)

Event Time Altitude Azimuth Distance (km) Brightness Sun altitude
Exits shadow 06:06:18 25° 245° (WSW) 3,811 10.0 -24.5°
Maximum altitude 06:14:33 45° 192° (SSW) 3,712 10.4 -23.1°
Drops below altitude 10° 06:35:27 10° 130° (SE) 7,240 12.9 -19.6°
Sets 06:42:00 0° 125° (SE) 8,436 13.6 -18.5°
